Hourly Weather Muniakowice

Today, 27 September, Monday

Time Temperature Precipitation Wind Pressure Humidity
00:00 +13°C° 0 mm 3 mps 741 mmHg 93%
01:00 +12°C° 0 mm 3 mps 741 mmHg 94%
02:00 +12°C° 0 mm 3 mps 741 mmHg 95%
03:00 +12°C° 0 mm 3 mps 741 mmHg 95%
04:00 +11°C° 0 mm 3 mps 741 mmHg 96%
05:00 +12°C° 0 mm 3 mps 741 mmHg 94%
06:00 +12°C° 0 mm 3 mps 741 mmHg 93%
07:00 +12°C° 0 mm 4 mps 741 mmHg 91%
08:00 +14°C° 0 mm 4 mps 741 mmHg 84%
09:00 +17°C° 0 mm 4 mps 741 mmHg 78%
10:00 +17°C° 0 mm 5 mps 741 mmHg 71%
11:00 +19°C° 0 mm 5 mps 741 mmHg 68%
12:00 +20°C° 0 mm 5 mps 740 mmHg 66%
13:00 +20°C° 0 mm 5 mps 740 mmHg 63%
14:00 +20°C° 0 mm 5 mps 740 mmHg 65%
15:00 +19°C° 0 mm 5 mps 740 mmHg 67%
16:00 +19°C° 0 mm 4 mps 740 mmHg 69%
17:00 +18°C° 0 mm 4 mps 740 mmHg 72%
18:00 +15°C° 0 mm 4 mps 740 mmHg 75%
19:00 +14°C° 0 mm 4 mps 740 mmHg 78%
20:00 +13°C° 0 mm 4 mps 740 mmHg 77%
21:00 +12°C° 0 mm 4 mps 740 mmHg 77%
22:00 +12°C° 0 mm 4 mps 740 mmHg 76%
23:00 +11°C° 0 mm 3 mps 741 mmHg 77%

Tomorrow, 28 September, Tuesday

Time Temperature Precipitation Wind Pressure Humidity
00:00 +10°C° 0 mm 3 mps 741 mmHg 78%
01:00 +10°C° 0 mm 3 mps 741 mmHg 79%
02:00 +9°C° 0 mm 2 mps 741 mmHg 80%
03:00 +9°C° 0 mm 2 mps 741 mmHg 81%
04:00 +8°C° 0 mm 2 mps 741 mmHg 82%
05:00 +9°C° 0 mm 2 mps 741 mmHg 81%
06:00 +9°C° 0 mm 2 mps 742 mmHg 79%
07:00 +9°C° 0 mm 2 mps 742 mmHg 78%
08:00 +12°C° 0 mm 2 mps 742 mmHg 73%
09:00 +12°C° 0 mm 3 mps 743 mmHg 69%
10:00 +14°C° 0 mm 3 mps 743 mmHg 64%
11:00 +14°C° 0 mm 3 mps 743 mmHg 62%
12:00 +16°C° 0 mm 3 mps 743 mmHg 60%
13:00 +17°C° 0 mm 3 mps 743 mmHg 58%
14:00 +17°C° 0 mm 3 mps 743 mmHg 61%
15:00 +16°C° 0 mm 3 mps 743 mmHg 63%
16:00 +16°C° 0 mm 2 mps 743 mmHg 66%
17:00 +15°C° 0 mm 2 mps 743 mmHg 69%
18:00 +14°C° 0 mm 2 mps 743 mmHg 73%
19:00 +12°C° 0 mm 2 mps 743 mmHg 76%
20:00 +12°C° 0 mm 2 mps 744 mmHg 78%
21:00 +10°C° 0 mm 2 mps 744 mmHg 80%
22:00 +10°C° 0 mm 2 mps 744 mmHg 82%
23:00 +9°C° 0 mm 2 mps 744 mmHg 83%

Day after tomorrow, 29 September, Wednesday

Time Temperature Precipitation Wind Pressure Humidity
00:00 +9°C° 0 mm 2 mps 743 mmHg 85%
01:00 +8°C° 0 mm 2 mps 743 mmHg 86%
02:00 +8°C° 0 mm 2 mps 743 mmHg 86%
03:00 +7°C° 0 mm 3 mps 743 mmHg 86%
04:00 +7°C° 0 mm 3 mps 743 mmHg 86%
05:00 +7°C° 0 mm 3 mps 743 mmHg 85%
06:00 +8°C° 0 mm 3 mps 743 mmHg 83%
07:00 +8°C° 0 mm 3 mps 743 mmHg 81%
08:00 +10°C° 0 mm 4 mps 743 mmHg 76%
09:00 +11°C° 0 mm 4 mps 743 mmHg 71%
10:00 +13°C° 0 mm 4 mps 743 mmHg 66%
11:00 +14°C° 0 mm 4 mps 742 mmHg 64%
12:00 +17°C° 0 mm 3 mps 742 mmHg 62%
13:00 +18°C° 0 mm 3 mps 742 mmHg 60%
14:00 +18°C° 0 mm 3 mps 742 mmHg 64%
15:00 +18°C° 0 mm 3 mps 742 mmHg 68%
16:00 +18°C° 0 mm 3 mps 741 mmHg 71%
17:00 +17°C° 0 mm 2 mps 741 mmHg 74%
18:00 +16°C° 0 mm 2 mps 741 mmHg 77%
19:00 +15°C° 0 mm 2 mps 742 mmHg 80%
20:00 +15°C° 0 mm 2 mps 742 mmHg 80%
21:00 +15°C° 0 mm 1 mps 742 mmHg 80%
22:00 +15°C° 0 mm 1 mps 742 mmHg 81%
23:00 +15°C° 0.1 mm 1 mps 742 mmHg 82%

30 September, Thursday

Time Temperature Precipitation Wind Pressure Humidity
00:00 +15°C° 0.1 mm 2 mps 742 mmHg 84%
01:00 +15°C° 0.1 mm 2 mps 742 mmHg 86%
02:00 +14°C° 0 mm 3 mps 743 mmHg 86%
03:00 +14°C° 0 mm 4 mps 743 mmHg 87%
04:00 +13°C° 0 mm 5 mps 743 mmHg 87%
05:00 +13°C° 0 mm 5 mps 744 mmHg 87%
06:00 +13°C° 0 mm 4 mps 744 mmHg 86%
07:00 +13°C° 0 mm 4 mps 745 mmHg 86%
08:00 +13°C° 0.1 mm 4 mps 745 mmHg 83%
09:00 +13°C° 0.1 mm 3 mps 746 mmHg 81%
10:00 +13°C° 0.1 mm 3 mps 746 mmHg 78%
11:00 +13°C° 0.1 mm 3 mps 746 mmHg 74%
12:00 +15°C° 0.1 mm 2 mps 746 mmHg 70%
13:00 +15°C° 0.1 mm 2 mps 746 mmHg 65%
14:00 +15°C° 0.1 mm 2 mps 746 mmHg 68%
15:00 +15°C° 0.1 mm 1 mps 746 mmHg 70%
16:00 +14°C° 0.1 mm 1 mps 746 mmHg 73%
17:00 +14°C° 0 mm 1 mps 747 mmHg 75%
18:00 +13°C° 0 mm 1 mps 747 mmHg 77%
19:00 +13°C° 0 mm 1 mps 747 mmHg 79%
20:00 +13°C° 0 mm 1 mps 747 mmHg 79%
21:00 +13°C° 0 mm 1 mps 747 mmHg 80%
22:00 +12°C° 0 mm 1 mps 747 mmHg 80%
23:00 +12°C° 0 mm 1 mps 747 mmHg 82%

1 October, Friday

Time Temperature Precipitation Wind Pressure Humidity
00:00 +12°C° 0 mm 1 mps 747 mmHg 84%
01:00 +12°C° 0 mm 1 mps 747 mmHg 86%
02:00 +12°C° 0 mm 1 mps 747 mmHg 88%
03:00 +12°C° 0 mm 1 mps 747 mmHg 90%
04:00 +10°C° 0 mm 2 mps 746 mmHg 91%
05:00 +12°C° 0 mm 2 mps 746 mmHg 91%
06:00 +12°C° 0 mm 2 mps 746 mmHg 92%
07:00 +12°C° 0 mm 2 mps 746 mmHg 92%
08:00 +13°C° 0 mm 2 mps 746 mmHg 87%
09:00 +13°C° 0 mm 3 mps 746 mmHg 83%
10:00 +14°C° 0 mm 3 mps 746 mmHg 78%
11:00 +16°C° 0 mm 3 mps 746 mmHg 75%
12:00 +16°C° 0 mm 2 mps 746 mmHg 72%
13:00 +17°C° 0 mm 2 mps 745 mmHg 69%
14:00 +17°C° 0 mm 2 mps 745 mmHg 70%
15:00 +16°C° 0 mm 2 mps 745 mmHg 71%
16:00 +16°C° 0 mm 2 mps 744 mmHg 72%
17:00 +15°C° 0 mm 2 mps 744 mmHg 78%
18:00 +14°C° 0 mm 2 mps 744 mmHg 83%
19:00 +13°C° 0 mm 2 mps 744 mmHg 88%
20:00 +12°C° 0 mm 2 mps 744 mmHg 89%
21:00 +12°C° 0 mm 2 mps 744 mmHg 90%
22:00 +12°C° 0 mm 2 mps 744 mmHg 92%
23:00 +12°C° 0 mm 1 mps 743 mmHg 92%

2 October, Saturday

Time Temperature Precipitation Wind Pressure Humidity
00:00 +11°C° 0 mm 1 mps 743 mmHg 92%
01:00 +11°C° 0 mm 1 mps 743 mmHg 92%
02:00 +11°C° 0 mm 1 mps 742 mmHg 92%
03:00 +11°C° 0 mm 1 mps 742 mmHg 93%
04:00 +10°C° 0 mm 1 mps 742 mmHg 93%
05:00 +11°C° 0 mm 1 mps 742 mmHg 91%
06:00 +11°C° 0 mm 1 mps 741 mmHg 89%
07:00 +12°C° 0 mm 1 mps 741 mmHg 88%
08:00 +14°C° 0 mm 1 mps 741 mmHg 80%
09:00 +15°C° 0 mm 1 mps 741 mmHg 72%
10:00 +17°C° 0 mm 2 mps 741 mmHg 65%
11:00 +18°C° 0 mm 2 mps 741 mmHg 60%
12:00 +19°C° 0 mm 2 mps 741 mmHg 56%
13:00 +20°C° 0 mm 2 mps 741 mmHg 52%
14:00 +21°C° 0 mm 1 mps 740 mmHg 53%
15:00 +20°C° 0 mm 1 mps 740 mmHg 55%
16:00 +20°C° 0 mm 1 mps 740 mmHg 57%
17:00 +19°C° 0 mm 1 mps 740 mmHg 60%
18:00 +16°C° 0 mm 1 mps 740 mmHg 64%
19:00 +15°C° 0 mm 1 mps 740 mmHg 67%
20:00 +14°C° 0 mm 1 mps 740 mmHg 67%
21:00 +14°C° 0 mm 1 mps 740 mmHg 68%
22:00 +14°C° 0 mm 1 mps 740 mmHg 68%
23:00 +13°C° 0 mm 1 mps 740 mmHg 69%
Show more

We Need Your Consent

Meteoprog and our Service Providers may store and access personal data such as cookies, device identifiers or other similar technologies on your device and process such data to personalise content and ads, as well as provide social media features and to analyse the traffic.

  • Store and/or access information on your device

    Cookies, device identifiers or other information can be stored or accessed on your device for the purposes indicated above.

  • Personalised ads and content, ad and content measurement, audience insights, and products development

    Ads and content can be personalised based on a profile. More data can be added to better personalise ads and content. Ad and content performance can be measured. Insights about the audience who saw the ads and content can be derived. Such data can be used to develop or improve user’s experience, systems and software.

By clicking ‘I Agree’ you will allow the use of indicated cookies, device identifiers, web beacons or other similar technologies. Your settings can be changed in the browser on your device.

For certain purposes, legitimate interests may be relied on, rather than consent. You can read more about this in our Privacy and Cookie Policy.